KD7KCN-5 Weather Reports


Display with metric or nautical units.
time (UTC)temp
F
wind
direction
speed
MPH
gust
MPH
rain 1hr
in
rain 24hr
in
rain mn
in
humidity
%
barometer
mb
20260905232531 80 136 20.0 32.0 0.00 0.00 0.00 16 1015.7
20260905231532 82 138 12.0 24.0 0.00 0.00 0.00 14 1015.6
20260905230532 81 146 9.0 23.0 0.00 0.00 0.00 15 1015.8
20260905225531 81 207 7.0 36.0 0.00 0.00 0.00 15 1015.8
20260905224532 81 133 10.0 31.0 0.00 0.00 0.00 15 1016.0
20260905223531 80 144 22.0 33.0 0.00 0.00 0.00 15 1015.9
20260905222531 80 159 17.0 27.0 0.00 0.00 0.00 14 1016.0
20260905221532 80 154 21.0 37.0 0.00 0.00 0.00 14 1016.1
20260905220532 80 132 16.0 39.0 0.00 0.00 0.00 14 1016.0
20260905215531 80 130 16.0 34.0 0.00 0.00 0.00 15 1016.2
20260905214534 80 142 20.0 36.0 0.00 0.00 0.00 14 1016.3
20260905213531 80 142 18.0 38.0 0.00 0.00 0.00 13 1016.5
20260905212531 79 136 15.0 38.0 0.00 0.00 0.00 14 1016.4
20260905211531 80 130 14.0 27.0 0.00 0.00 0.00 14 1016.6
20260905210532 80 135 19.0 35.0 0.00 0.00 0.00 13 1016.6
20260905205532 80 141 14.0 32.0 0.00 0.00 0.00 15 1016.7
20260905204532 80 145 20.0 30.0 0.00 0.00 0.00 14 1016.8
20260905203532 79 187 21.0 38.0 0.00 0.00 0.00 15 1016.8
20260905202531 79 139 26.0 39.0 0.00 0.00 0.00 16 1016.8
20260905201531 78 146 17.0 39.0 0.00 0.00 0.00 16 1016.6
20260905200533 78 152 24.0 36.0 0.00 0.00 0.00 18 1016.8
20260905195532 78 159 20.0 44.0 0.00 0.00 0.00 20 1017.1
20260905194532 77 138 17.0 44.0 0.00 0.00 0.00 20 1017.1
20260905193532 78 143 19.0 40.0 0.00 0.00 0.00 20 1017.2
20260905192532 79 140 19.0 29.0 0.00 0.00 0.00 19 1017.4
20260905191532 77 142 16.0 39.0 0.00 0.00 0.00 19 1017.6
20260905190533 77 137 15.0 35.0 0.00 0.00 0.00 18 1017.6
20260905185532 77 127 16.0 31.0 0.00 0.00 0.00 19 1017.7
20260905184532 76 162 12.0 32.0 0.00 0.00 0.00 19 1017.7
20260905183532 75 134 22.0 36.0 0.00 0.00 0.00 20 1017.8
20260905181532 76 141 18.0 33.0 0.00 0.00 0.00 20 1018.0
20260905180532 75 146 16.0 37.0 0.00 0.00 0.00 21 1018.1
20260905175532 74 152 21.0 34.0 0.00 0.00 0.00 21 1018.1
20260905174533 74 141 22.0 38.0 0.00 0.00 0.00 21 1018.1
20260905172532 74 182 21.0 36.0 0.00 0.00 0.00 1018.2
20260905171532 74 134 18.0 33.0 0.00 0.00 0.00 20 1018.0
20260905170532 74 161 15.0 28.0 0.00 0.00 0.00 21 1018.1
20260905165533 73 142 22.0 34.0 0.00 0.00 0.00 20 1018.0
20260905163533 74 134 16.0 32.0 0.00 0.00 0.00 19 1017.9
20260905160532 73 134 18.0 27.0 0.00 0.00 0.00 19 1017.7
20260905155532 73 124 18.0 29.0 0.00 0.00 0.00 19 1017.6
20260905154532 73 122 18.0 27.0 0.00 0.00 0.00 19 1017.7
20260905153533 72 127 18.0 24.0 0.00 0.00 0.00 19 1017.8
20260905150533 71 120 14.0 19.0 0.00 0.00 0.00 20 1017.9
20260905144533 69 125 10.0 15.0 0.00 0.00 0.00 21 1017.9
20260905143533 68 122 10.0 14.0 0.00 0.00 0.00 21 1017.9
20260905142532 68 111 7.0 11.0 0.00 0.00 0.00 21 1017.8
20260905141532 67 98 7.0 14.0 0.00 0.00 0.00 22 1017.7
20260905140533 67 126 6.0 11.0 0.00 0.00 0.00 22 1017.6
20260905135533 66 118 4.0 10.0 0.00 0.00 0.00 22 1017.5
20260905134532 65 118 6.0 13.0 0.00 0.00 0.00 23 1017.4
20260905133532 64 156 3.0 11.0 0.00 0.00 0.00 23 1017.3
20260905132533 63 97 1.0 9.0 0.00 0.00 0.00 23 1017.1
20260905131533 63 94 4.0 9.0 0.00 0.00 0.00 23 1017.1
20260905130532 64 133 5.0 12.0 0.00 0.00 0.00 23 1017.0
20260905125533 64 134 4.0 14.0 0.00 0.00 0.00 23 1017.0
20260905124533 64 141 10.0 18.0 0.00 0.00 0.00 23 1016.8
20260905123533 65 131 10.0 23.0 0.00 0.00 0.00 23 1016.7
20260905122533 64 136 10.0 20.0 0.00 0.00 0.00 23 1016.7
20260905121534 64 140 12.0 18.0 0.00 0.00 0.00 23 1016.8
20260905120533 64 140 11.0 16.0 0.00 0.00 0.00 23 1016.9
20260905115533 64 121 5.0 10.0 0.00 0.00 0.00 23 1016.9
20260905114533 64 135 5.0 10.0 0.00 0.00 0.00 23 1017.0
20260905113534 64 125 3.0 10.0 0.00 0.00 0.00 22 1016.9
20260905112533 65 101 3.0 14.0 0.00 0.00 0.00 21 1016.9
20260905111534 65 108 5.0 14.0 0.00 0.00 0.00 22 1016.9
20260905110533 64 158 3.0 7.0 0.00 0.00 0.00 22 1016.8
20260905105534 65 135 5.0 12.0 0.00 0.00 0.00 21 1016.9
20260905104534 66 147 5.0 15.0 0.00 0.00 0.00 21 1016.8
20260905103533 66 158 9.0 18.0 0.00 0.00 0.00 21 1016.9
20260905102534 66 157 7.0 16.0 0.00 0.00 0.00 20 1016.9
20260905101533 66 163 10.0 21.0 0.00 0.00 0.00 20 1016.8
20260905100533 67 138 10.0 21.0 0.00 0.00 0.00 19 1016.7
20260905095533 67 174 12.0 23.0 0.00 0.00 0.00 19 1016.7
20260905094533 67 151 10.0 24.0 0.00 0.00 0.00 19 1016.7
20260905093533 67 147 9.0 16.0 0.00 0.00 0.00 19 1016.7
20260905092533 67 148 9.0 19.0 0.00 0.00 0.00 19 1016.7
20260905091534 67 147 6.0 21.0 0.00 0.00 0.00 19 1016.5
20260905090533 67 175 15.0 20.0 0.00 0.00 0.00 19 1016.5
20260905085533 67 138 4.0 23.0 0.00 0.00 0.00 19 1016.5
20260905083534 67 143 11.0 17.0 0.00 0.00 0.00 19 1016.6
20260905082533 67 77 5.0 15.0 0.00 0.00 0.00 20 1016.6
20260905081534 67 97 3.0 10.0 0.00 0.00 0.00 21 1016.5
20260905080534 69 99 4.0 15.0 0.00 0.00 0.00 20 1016.4
20260905075533 69 149 10.0 20.0 0.00 0.00 0.00 19 1016.4
20260905074533 69 169 14.0 23.0 0.00 0.00 0.00 19 1016.4
20260905073534 68 134 4.0 16.0 0.00 0.00 0.00 20 1016.5
20260905072533 69 144 9.0 21.0 0.00 0.00 0.00 19 1016.4
20260905065537 68 150 5.0 16.0 0.00 0.00 0.00 21 1016.1
20260905064534 69 128 4.0 10.0 0.00 0.00 0.00 22 1015.9
20260905063534 69 161 7.0 16.0 0.00 0.00 0.00 21 1015.9
20260905061534 70 162 10.0 22.0 0.00 0.00 0.00 21 1015.7
20260905060533 70 209 10.0 18.0 0.00 0.00 0.00 21 1015.8
20260905055533 70 142 11.0 20.0 0.00 0.00 0.00 21 1015.6
20260905054534 70 161 14.0 20.0 0.00 0.00 0.00 21 1015.6
20260905053533 70 150 13.0 20.0 0.00 0.00 0.00 21 1015.7
20260905052535 70 201 10.0 16.0 0.00 0.00 0.00 21 1015.7
20260905051534 70 189 10.0 18.0 0.00 0.00 0.00 20 1015.7
20260905050533 70 195 9.0 20.0 0.00 0.00 0.00 20 1015.6
20260905045534 70 142 4.0 12.0 0.00 0.00 0.00 20 1015.7
20260905044534 70 155 7.0 15.0 0.00 0.00 0.00 20 1015.6
20260905043534 71 184 11.0 17.0 0.00 0.00 0.00 19 1015.5
20260905042536 70 178 10.0 16.0 0.00 0.00 0.00 1015.4
20260905041534 71 167 6.0 11.0 0.00 0.00 0.00 19 1015.3
20260905040534 71 145 9.0 20.0 0.00 0.00 0.00 19 1015.2
20260905035535 71 189 10.0 20.0 0.00 0.00 0.00 20 1015.1
20260905034535 72 158 12.0 20.0 0.00 0.00 0.00 20 1015.1
20260905033535 72 156 10.0 15.0 0.00 0.00 0.00 20 1014.9
20260905032537 72 142 10.0 21.0 0.00 0.00 0.00 20 1014.8
20260905031534 72 151 8.0 20.0 0.00 0.00 0.00 21 1014.8
20260905030534 72 172 9.0 20.0 0.00 0.00 0.00 21 1014.5
20260905025535 72 139 10.0 21.0 0.00 0.00 0.00 22 1014.2
20260905022534 73 145 9.0 19.0 0.00 0.00 0.00 24 1014.3
20260905021534 73 164 13.0 24.0 0.00 0.00 0.00 24 1014.1
20260905015535 74 141 12.0 25.0 0.00 0.00 0.00 23 1014.1
20260905013535 74 144 8.0 17.0 0.00 0.00 0.00 22 1014.0
20260905012535 74 144 11.0 29.0 0.00 0.00 0.00 21 1014.0
20260905010535 75 156 19.0 29.0 0.00 0.00 0.00 19 1013.8
20260905005534 76 141 13.0 32.0 0.00 0.00 0.00 19 1013.7
20260905004534 76 139 11.0 33.0 0.00 0.00 0.00 18 1013.7
20260905003535 76 163 18.0 34.0 0.00 0.00 0.00 19 1013.8
20260905002534 77 157 19.0 31.0 0.00 0.00 0.00 17 1013.8
20260905001535 77 151 28.0 44.0 0.00 0.00 0.00 17 1013.8
20260905000537 77 162 18.0 51.0 0.00 0.00 0.00 18 1013.7
20260904235534 77 177 28.0 42.0 0.00 0.00 0.00 19 1013.5
20260904234535 77 149 27.0 43.0 0.00 0.00 0.00 19 1013.5
20260904233537 77 149 24.0 43.0 0.00 0.00 0.00 20 1013.1